Weather History for Huntington, WV

Change the Weather History Date:

Wednesday, September 4, 2013

  Actual Average Record
Temperature  
Mean Temperature 67 °F 72 °F  
Max Temperature 80 °F 83 °F 99 °F (1953)
Min Temperature 54 °F 61 °F 43 °F (1902)
Degree Days  
Heating Degree Days 0 0  
Month to date heating degree days 0 0  
Since 1 July heating degree days 4 2  
Cooling Degree Days 2 7  
Month to date cooling degree days 32 30  
Year to date cooling degree days 1064 1007  
Growing Degree Days 17 (Base 50)    
Moisture  
Dew Point 56 °F    
Average Humidity 71    
Maximum Humidity 100    
Minimum Humidity 42    
Precipitation  
Precipitation 0.00 in 0.11 in 1.08 in (1935)
Month to date precipitation T 0.42  
Year to date precipitation 32.42 30.67  
Snow  
Snow 0.00 in - - ()
Month to date snowfall 0.0  
Since 1 September snowfall 0.0  
Snow Depth 0.00 in    
Sea Level Pressure  
Sea Level Pressure 30.11 in    
Wind  
Wind Speed 1 mph (NW)    
Max Wind Speed 7 mph    
Max Gust Speed 10 mph    
Visibility 8 miles    
Events Fog    
T = Trace of Precipitation, MM = Missing Value Source: NWS Daily Summary

Daily Weather History Graph

Daily Weather History Graph

Search for Another Location

Airport:

Trip Planner

Search our weather history database for the weather conditions in past years. The results will help you decide how hot, cold, wet, or windy it might be!

Date:

Astronomy

Sep. 04, 2013 Rise Set
Actual Time 7:02 AM EDT 7:55 PM EDT
Civil Twilight 6:35 AM EDT 8:21 PM EDT
Nautical Twilight 6:03 AM EDT 8:53 PM EDT
Astronomical Twilight 5:30 AM EDT 9:26 PM EDT
Moon 6:13 AM EDT (9/4) 7:14 PM EDT (9/4)
Length of Visible Light 13h 46m
Length of Day
12h 52m
Waning Crescent, 1% of the Moon is Illuminated
Sep 4
Waning Crescent
Sep 5
New
Sep 12
First Quarter
Sep 19
Full
Sep 26
Last Quarter

Hourly Weather History & Observations

Time (EDT) Temp. Heat Index Dew Point Humidity Pressure Visibility Wind Dir Wind Speed Gust Speed Precip Events Conditions
12:51 AM 61.0 °F - 55.0 °F 81% 30.07 in 10.0 mi Calm Calm - N/A   Clear
1:51 AM 57.9 °F - 55.9 °F 93% 30.06 in 10.0 mi Calm Calm - N/A   Clear
2:51 AM 57.9 °F - 55.9 °F 93% 30.07 in 10.0 mi Calm Calm - N/A   Clear
3:51 AM 57.0 °F - 55.0 °F 93% 30.07 in 9.0 mi Calm Calm - N/A   Clear
4:02 AM 55.4 °F - 53.6 °F 94% 30.09 in 9.0 mi Calm Calm - N/A   Clear
4:11 AM 55.4 °F - 53.6 °F 94% 30.09 in 9.0 mi Calm Calm - N/A   Clear
4:51 AM 55.9 °F - 54.0 °F 93% 30.08 in 10.0 mi Calm Calm - N/A   Clear
5:51 AM 55.9 °F - 55.0 °F 97% 30.09 in 8.0 mi Calm Calm - N/A   Clear
6:18 AM 55.4 °F - 53.6 °F 94% 30.10 in 2.0 mi Calm Calm - N/A   Scattered Clouds
6:20 AM 55.4 °F - 55.4 °F 100% 30.10 in 1.0 mi Calm Calm - N/A   Mist
6:26 AM 55.4 °F - 55.4 °F 100% 30.10 in 0.2 mi North 3.5 mph - N/A Fog Fog
6:51 AM 55.0 °F - 54.0 °F 96% 30.10 in 0.2 mi Calm Calm - N/A Fog Fog
7:26 AM 55.4 °F - 53.6 °F 94% 30.13 in 0.2 mi Calm Calm - N/A Fog Fog
7:51 AM 55.0 °F - 55.0 °F 100% 30.13 in 0.5 mi Calm Calm - N/A Fog Fog
8:29 AM 57.2 °F - 57.2 °F 100% 30.15 in 2.0 mi Calm Calm - N/A   Partly Cloudy
8:51 AM 59.0 °F - 57.0 °F 93% 30.14 in 2.0 mi Calm Calm - N/A   Partly Cloudy
9:51 AM 64.0 °F - 57.9 °F 80% 30.15 in 8.0 mi Calm Calm - N/A   Haze
10:51 AM 68.0 °F - 57.9 °F 70% 30.15 in 8.0 mi Calm Calm - N/A   Scattered Clouds
11:51 AM 69.1 °F - 55.9 °F 63% 30.15 in 10.0 mi Calm Calm - N/A   Mostly Cloudy
12:23 PM 71.6 °F - 57.2 °F 60% 30.16 in 10.0 mi Variable 4.6 mph - N/A   Scattered Clouds
12:51 PM 73.0 °F - 57.9 °F 59% 30.14 in 10.0 mi Calm Calm - N/A   Scattered Clouds
1:51 PM 73.9 °F - 55.9 °F 53% 30.13 in 10.0 mi Calm Calm - N/A   Clear
2:51 PM 77.0 °F - 54.0 °F 45% 30.12 in 10.0 mi Calm Calm - N/A   Clear
3:51 PM 78.1 °F - 54.0 °F 43% 30.11 in 10.0 mi Variable 3.5 mph - N/A   Clear
4:51 PM 80.1 °F 80.1 °F 55.0 °F 42% 30.10 in 10.0 mi Calm Calm - N/A   Clear
5:51 PM 79.0 °F - 55.0 °F 44% 30.11 in 10.0 mi Calm Calm - N/A   Clear
6:51 PM 77.0 °F - 57.9 °F 52% 30.11 in 10.0 mi West 3.5 mph - N/A   Clear
7:51 PM 71.1 °F - 57.9 °F 63% 30.11 in 10.0 mi Calm Calm - N/A   Clear
8:51 PM 68.0 °F - 60.1 °F 76% 30.12 in 10.0 mi Calm Calm - N/A   Clear
9:51 PM 64.0 °F - 60.1 °F 87% 30.13 in 10.0 mi Calm Calm - N/A   Clear
10:51 PM 62.1 °F - 59.0 °F 90% 30.14 in 10.0 mi Calm Calm - N/A   Clear
11:51 PM 62.1 °F - 59.0 °F 90% 30.14 in 7.0 mi Calm Calm - N/A   Clear